START_TIME,STEP,MOV.,H8,t_acc.,H43,t_acc.,M25,t_acc.,H9,t_acc.
1981-08-29 03:00:30.150 ,7,0,0.,12.0,0.,12.0,0.,12.0,0.,12.0
1981-08-29 03:00:42.150 ,7,0,0.,12.0,0.,12.0,0.,12.0,0.,12.0
1981-08-29 03:00:54.150 ,7,0,0.,12.0,0.,12.0,0.,12.0,0.,12.0
1981-08-29 03:01:06.150 ,7,0,0.,12.0,0.,12.0,0.,12.0,0.,12.0
1981-08-29 03:01:18.150 ,7,0,0.,12.0,0.,12.0,0.,12.0,0.,12.0
1981-08-29 03:01:30.150 ,7,0,0.,12.0,0.,12.0,0.,12.0,0.,12.0
1981-08-29 03:01:42.150 ,6,0,0.,12.0,0.,12.0,0.,12.0,0.,12.0
1981-08-29 03:01:54.150 ,6,0,0.,12.0,0.,12.0,0.,12.0,0.,12.0
1981-08-29 03:02:06.150 ,6,0,0.,12.0,0.,12.0,0.,12.0,0.,12.0
1981-08-29 03:02:18.150 ,6,0,0.,12.0,0.,12.0,0.,12.0,0.,12.0
1981-08-29 03:02:30.150 ,5,0,0.,12.0,0.,12.0,0.,12.0,0.,12.0
1981-08-29 03:02:42.150 ,5,0,0.,12.0,0.,12.0,0.,12.0,0.,12.0
1981-08-29 03:02:54.150 ,5,0,0.,12.0,0.,12.0,0.,12.0,0.,12.0
1981-08-29 03:03:06.150 ,5,0,0.,12.0,0.,12.0,0.,12.0,0.,12.0
1981-08-29 03:03:18.150 ,4,0,0.,12.0,0.,12.0,0.,12.0,0.,12.0
1981-08-29 03:03:30.150 ,4,0,0.,12.0,0.,12.0,0.,12.0,0.,12.0
1981-08-29 03:03:42.150 ,4,0,0.,12.0,0.,12.0,0.,12.0,0.,12.0
1981-08-29 03:03:54.150 ,4,0,0.,12.0,0.,12.0,0.,12.0,0.,12.0
1981-08-29 03:04:06.150 ,3,0,0.,12.0,0.,12.0,0.,12.0,0.,12.0
1981-08-29 03:04:18.150 ,3,0,0.,12.0,0.,12.0,0.,12.0,0.,12.0
1981-08-29 03:04:30.150 ,3,0,0.,12.0,0.,12.0,0.,12.0,0.,12.0
1981-08-29 03:04:42.150 ,3,0,0.,12.0,0.,12.0,0.,12.0,0.,12.0
1981-08-29 03:04:54.150 ,2,0,0.,12.0,0.,12.0,0.,12.0,0.,12.0
1981-08-29 03:05:06.150 ,2,0,0.,12.0,0.,12.0,0.,12.0,0.,12.0
1981-08-29 03:05:18.150 ,2,0,0.,12.0,0.,12.0,0.,12.0,0.,12.0
1981-08-29 03:05:30.150 ,2,0,0.,12.0,0.,12.0,0.,12.0,0.,12.0
1981-08-29 03:05:42.150 ,1,0,0.,12.0,0.,12.0,0.,12.0,0.,12.0
1981-08-29 03:05:54.150 ,1,0,0.,12.0,0.,12.0,0.,12.0,0.,12.0
1981-08-29 03:06:06.150 ,1,0,0.,12.0,0.,12.0,0.,12.0,0.,12.0
1981-08-29 03:06:18.150 ,1,0,0.,12.0,0.,12.0,0.,12.0,0.,12.0
1981-08-29 03:06:30.150 ,0,0,0.,12.0,0.,12.0,0.,12.0,0.,12.0
1981-08-29 03:06:42.150 ,0,0,0.,12.0,0.,12.0,0.,12.0,0.,12.0
1981-08-29 03:06:54.150 ,0,0,0.,12.0,0.,12.0,0.,12.0,0.,12.0
1981-08-29 03:07:06.150 ,0,0,0.,12.0,0.,12.0,0.,12.0,0.,12.0
1981-08-29 03:07:18.150 ,0,0,0.,12.0,0.,12.0,0.,12.0,0.,12.0
1981-08-29 03:07:30.150 ,0,0,0.,12.0,0.,12.0,0.,12.0,0.,12.0
1981-08-29 03:07:42.150 ,0,0,0.,12.0,0.,12.0,0.,12.0,0.,12.0
1981-08-29 03:07:54.150 ,0,0,0.,12.0,0.,12.0,0.,12.0,0.,12.0
1981-08-29 03:08:06.150 ,1,0,0.,12.0,0.,12.0,0.,12.0,0.,12.0
1981-08-29 03:08:18.150 ,1,0,0.,12.0,0.,12.0,0.,12.0,0.,12.0
1981-08-29 03:08:30.150 ,1,0,0.,12.0,0.,12.0,0.,12.0,0.,12.0
1981-08-29 03:08:42.150 ,1,0,0.,12.0,0.,12.0,0.,12.0,0.,12.0
1981-08-29 03:08:54.150 ,2,0,0.,12.0,0.,12.0,0.,12.0,0.,12.0
1981-08-29 03:09:06.150 ,2,0,0.,12.0,0.,12.0,0.,12.0,0.,12.0
1981-08-29 03:09:18.150 ,2,0,0.,12.0,0.,12.0,0.,12.0,0.,12.0
1981-08-29 03:09:30.150 ,2,0,0.,12.0,0.,12.0,0.,12.0,0.,12.0
1981-08-29 03:09:42.150 ,3,0,0.,12.0,0.,12.0,0.,12.0,0.,12.0
1981-08-29 03:09:54.150 ,3,0,0.,12.0,0.,12.0,0.,12.0,0.,12.0
1981-08-29 03:10:06.150 ,3,0,0.,12.0,0.,12.0,0.,12.0,0.,12.0
1981-08-29 03:10:18.150 ,3,0,0.,12.0,0.,12.0,0.,12.0,0.,12.0
1981-08-29 03:10:30.150 ,4,0,0.,12.0,0.,12.0,0.,12.0,0.,12.0
1981-08-29 03:10:42.150 ,4,0,0.,12.0,0.,12.0,0.,12.0,0.,12.0
1981-08-29 03:10:54.150 ,4,0,0.,12.0,0.,12.0,0.,12.0,0.,12.0
1981-08-29 03:11:06.150 ,4,0,0.,12.0,0.,12.0,0.,12.0,0.,12.0
1981-08-29 03:11:18.150 ,5,0,0.,12.0,0.,12.0,0.,12.0,0.,12.0
1981-08-29 03:11:30.150 ,5,0,0.,12.0,0.,12.0,0.,12.0,0.,12.0
1981-08-29 03:11:42.150 ,5,0,0.,12.0,0.,12.0,0.,12.0,0.,12.0
1981-08-29 03:11:54.150 ,5,0,0.,12.0,0.,12.0,0.,12.0,0.,12.0
1981-08-29 03:12:06.150 ,6,0,0.,12.0,0.,12.0,0.,12.0,0.,12.0
1981-08-29 03:12:18.150 ,6,0,0.,12.0,0.,12.0,0.,12.0,0.,12.0
1981-08-29 03:12:30.150 ,6,0,0.,12.0,0.,12.0,0.,12.0,0.,12.0
1981-08-29 03:12:42.150 ,6,0,0.,12.0,0.,12.0,0.,12.0,0.,12.0
1981-08-29 03:12:54.150 ,7,0,0.,12.0,0.,12.0,0.,12.0,0.,12.0
1981-08-29 03:13:06.150 ,7,0,0.,12.0,0.,12.0,0.,12.0,0.,12.0
1981-08-29 03:13:18.150 ,7,0,0.,12.0,0.,12.0,0.,12.0,0.,12.0
1981-08-29 03:13:30.150 ,7,0,0.,12.0,0.,12.0,0.,12.0,0.,12.0
1981-08-29 03:13:42.150 ,7,0,0.,12.0,0.,12.0,0.,12.0,0.,12.0
1981-08-29 03:13:54.150 ,7,0,0.,12.0,0.,12.0,0.,12.0,0.,12.0
1981-08-29 03:14:06.150 ,6,0,0.,12.0,0.,12.0,0.,12.0,0.,12.0
1981-08-29 03:14:18.150 ,6,0,0.,12.0,0.,12.0,0.,12.0,0.,12.0
1981-08-29 03:14:30.150 ,5,0,0.,12.0,0.,12.0,0.,12.0,0.,12.0
1981-08-29 03:14:42.150 ,5,0,0.,12.0,0.,12.0,0.,12.0,0.,12.0
1981-08-29 03:14:54.150 ,4,0,0.,12.0,0.,12.0,0.,12.0,0.,12.0
1981-08-29 03:15:06.150 ,4,0,0.,12.0,0.,12.0,0.,12.0,0.,12.0
1981-08-29 03:15:18.150 ,3,0,0.,12.0,0.,12.0,0.,12.0,0.,12.0
1981-08-29 03:15:30.150 ,3,0,0.,12.0,0.,12.0,0.,12.0,0.,12.0
1981-08-29 03:15:42.150 ,2,0,0.,12.0,0.,12.0,0.,12.0,0.,12.0
1981-08-29 03:15:54.150 ,2,0,0.,12.0,0.,12.0,0.,12.0,0.,12.0
1981-08-29 03:16:06.150 ,1,0,0.,12.0,0.,12.0,0.,12.0,0.,12.0
1981-08-29 03:16:18.150 ,1,0,0.,12.0,0.,12.0,0.,12.0,0.,12.0
1981-08-29 03:16:30.150 ,0,0,0.,12.0,0.,12.0,0.,12.0,0.,12.0
1981-08-29 03:16:42.150 ,0,0,0.,12.0,0.,12.0,0.,12.0,0.,12.0
1981-08-29 03:16:54.150 ,0,0,0.,12.0,0.,12.0,0.,12.0,0.,12.0
1981-08-29 03:17:06.150 ,0,0,0.,12.0,0.,12.0,0.,12.0,0.,12.0
1981-08-29 03:17:18.150 ,1,0,0.,12.0,0.,12.0,0.,12.0,0.,12.0
1981-08-29 03:17:30.150 ,1,0,0.,12.0,0.,12.0,0.,12.0,0.,12.0
1981-08-29 03:17:42.150 ,2,0,0.,12.0,0.,12.0,0.,12.0,0.,12.0
1981-08-29 03:17:54.150 ,2,0,0.,12.0,0.,12.0,0.,12.0,0.,12.0
1981-08-29 03:18:06.150 ,3,0,0.,12.0,0.,12.0,0.,12.0,0.,12.0
1981-08-29 03:18:18.150 ,3,0,0.,12.0,0.,12.0,0.,12.0,0.,12.0
1981-08-29 03:18:30.150 ,4,0,0.,12.0,0.,12.0,0.,12.0,0.,12.0
1981-08-29 03:18:42.150 ,4,0,0.,12.0,0.,12.0,0.,12.0,0.,12.0
1981-08-29 03:18:54.150 ,5,0,0.,12.0,0.,12.0,0.,12.0,0.,12.0
1981-08-29 03:19:06.150 ,5,0,0.,12.0,0.,12.0,0.,12.0,0.,12.0
1981-08-29 03:19:18.150 ,6,0,0.,12.0,0.,12.0,0.,12.0,0.,12.0
1981-08-29 03:19:30.150 ,6,0,0.,12.0,0.,12.0,0.,12.0,0.,12.0
1981-08-29 03:19:42.150 ,7,0,0.,12.0,0.,12.0,0.,12.0,0.,12.0
1981-08-29 03:19:54.150 ,7,0,0.,12.0,0.,12.0,0.,12.0,0.,12.0
1981-08-29 03:20:06.150 ,7,0,0.,12.0,0.,12.0,0.,12.0,0.,12.0
1981-08-29 03:20:18.150 ,7,0,0.,12.0,0.,12.0,0.,12.0,0.,12.0
1981-08-29 03:20:30.150 ,7,0,0.,12.0,0.,12.0,0.,12.0,0.,12.0
1981-08-29 03:20:42.150 ,7,0,0.,12.0,0.,12.0,0.,12.0,0.,12.0
1981-08-29 03:20:54.150 ,6,0,0.,12.0,0.,12.0,0.,12.0,0.,12.0
1981-08-29 03:21:06.150 ,6,0,0.,12.0,0.,12.0,0.,12.0,0.,12.0
1981-08-29 03:21:18.150 ,6,0,0.,12.0,0.,12.0,0.,12.0,0.,12.0
1981-08-29 03:21:30.150 ,6,0,0.,12.0,0.,12.0,0.,12.0,0.,12.0
1981-08-29 03:21:42.150 ,5,0,0.,12.0,0.,12.0,0.,12.0,0.,12.0
1981-08-29 03:21:54.150 ,5,0,0.,12.0,0.,12.0,0.,12.0,0.,12.0
1981-08-29 03:22:06.150 ,5,0,0.,12.0,0.,12.0,0.,12.0,0.,12.0
1981-08-29 03:22:18.150 ,5,0,0.,12.0,0.,12.0,0.,12.0,0.,12.0
1981-08-29 03:22:30.150 ,4,0,0.,12.0,0.,12.0,0.,12.0,0.,12.0
1981-08-29 03:22:42.150 ,4,0,0.,12.0,0.,12.0,0.,12.0,0.,12.0
1981-08-29 03:22:54.150 ,4,0,0.,12.0,0.,12.0,0.,12.0,0.,12.0
1981-08-29 03:23:06.150 ,4,0,0.,12.0,0.,12.0,0.,12.0,0.,12.0
1981-08-29 03:23:18.150 ,3,0,0.,12.0,0.,12.0,0.,12.0,0.,12.0
1981-08-29 03:23:30.150 ,3,0,0.,12.0,0.,12.0,0.,12.0,0.,12.0
1981-08-29 03:23:42.150 ,3,0,0.,12.0,0.,12.0,0.,12.0,0.,12.0
1981-08-29 03:23:54.150 ,3,0,0.,12.0,0.,12.0,0.,12.0,0.,12.0
1981-08-29 03:24:06.150 ,2,0,0.,12.0,0.,12.0,0.,12.0,0.,12.0
1981-08-29 03:24:18.150 ,2,0,0.,12.0,0.,12.0,0.,12.0,0.,12.0
1981-08-29 03:24:30.150 ,2,0,0.,12.0,0.,12.0,0.,12.0,0.,12.0
1981-08-29 03:24:42.150 ,2,0,0.,12.0,0.,12.0,0.,12.0,0.,12.0
1981-08-29 03:24:54.150 ,1,0,0.,12.0,0.,12.0,0.,12.0,0.,12.0
1981-08-29 03:25:06.150 ,1,0,0.,12.0,0.,12.0,0.,12.0,0.,12.0
1981-08-29 03:25:18.150 ,1,0,0.,12.0,0.,12.0,0.,12.0,0.,12.0
1981-08-29 03:25:30.150 ,1,0,0.,12.0,0.,12.0,0.,12.0,0.,12.0
1981-08-29 03:25:42.150 ,0,0,0.,12.0,0.,12.0,0.,12.0,0.,12.0
1981-08-29 03:25:54.150 ,0,0,0.,12.0,0.,12.0,0.,12.0,0.,12.0
1981-08-29 03:26:06.150 ,0,0,0.,12.0,0.,12.0,0.,12.0,0.,12.0
1981-08-29 03:26:18.150 ,0,0,0.,12.0,0.,12.0,0.,12.0,0.,12.0
1981-08-29 03:26:30.150 ,0,0,0.,12.0,0.,12.0,0.,12.0,0.,12.0
1981-08-29 03:26:42.150 ,0,0,0.,12.0,0.,12.0,0.,12.0,0.,12.0
1981-08-29 03:26:54.150 ,0,0,0.,12.0,0.,12.0,0.,12.0,0.,12.0
1981-08-29 03:27:06.150 ,0,0,0.,12.0,0.,12.0,0.,12.0,0.,12.0
1981-08-29 03:27:18.150 ,1,0,0.,12.0,0.,12.0,0.,12.0,0.,12.0
1981-08-29 03:27:30.150 ,1,0,0.,12.0,0.,12.0,0.,12.0,0.,12.0
1981-08-29 03:27:42.150 ,1,0,0.,12.0,0.,12.0,0.,12.0,0.,12.0
1981-08-29 03:27:54.150 ,1,0,0.,12.0,0.,12.0,0.,12.0,0.,12.0
1981-08-29 03:28:06.150 ,2,0,0.,12.0,0.,12.0,0.,12.0,0.,12.0
1981-08-29 03:28:18.150 ,2,0,0.,12.0,0.,12.0,0.,12.0,0.,12.0
1981-08-29 03:28:30.150 ,2,0,0.,12.0,0.,12.0,0.,12.0,0.,12.0
1981-08-29 03:28:42.150 ,2,0,0.,12.0,0.,12.0,0.,12.0,0.,12.0
1981-08-29 03:28:54.150 ,3,0,0.,12.0,0.,12.0,0.,12.0,0.,12.0
1981-08-29 03:29:06.150 ,3,0,0.,12.0,0.,12.0,0.,12.0,0.,12.0
1981-08-29 03:29:18.150 ,3,0,0.,12.0,0.,12.0,0.,12.0,0.,12.0
1981-08-29 03:29:30.150 ,3,0,0.,12.0,0.,12.0,0.,12.0,0.,12.0
1981-08-29 03:29:42.150 ,4,0,0.,12.0,0.,12.0,0.,12.0,0.,12.0
1981-08-29 03:29:54.150 ,4,0,0.,12.0,0.,12.0,0.,12.0,0.,12.0
1981-08-29 03:30:06.150 ,4,0,0.,12.0,0.,12.0,0.,12.0,0.,12.0
1981-08-29 03:30:18.150 ,4,0,0.,12.0,0.,12.0,0.,12.0,0.,12.0
1981-08-29 03:30:30.150 ,5,0,0.,12.0,0.,12.0,0.,12.0,0.,12.0
1981-08-29 03:30:42.150 ,5,0,0.,12.0,0.,12.0,0.,12.0,0.,12.0
1981-08-29 03:30:54.150 ,5,0,0.,12.0,0.,12.0,0.,12.0,0.,12.0
1981-08-29 03:31:06.150 ,5,0,0.,12.0,0.,12.0,0.,12.0,0.,12.0
1981-08-29 03:31:18.150 ,6,0,0.,12.0,0.,12.0,0.,12.0,0.,12.0
1981-08-29 03:31:30.150 ,6,0,0.,12.0,0.,12.0,0.,12.0,0.,12.0
1981-08-29 03:31:42.150 ,6,0,0.,12.0,0.,12.0,0.,12.0,0.,12.0
1981-08-29 03:31:54.150 ,6,0,0.,12.0,0.,12.0,0.,12.0,0.,12.0
1981-08-29 03:32:06.150 ,7,0,0.,12.0,0.,12.0,0.,12.0,0.,12.0
1981-08-29 03:32:18.150 ,7,0,0.,12.0,0.,12.0,0.,12.0,0.,12.0
1981-08-29 03:32:30.150 ,7,0,0.,12.0,0.,12.0,0.,12.0,0.,12.0
1981-08-29 03:32:42.150 ,7,0,0.,12.0,0.,12.0,0.,12.0,0.,12.0
1981-08-29 03:32:54.150 ,7,0,0.,12.0,0.,12.0,0.,12.0,0.,12.0
1981-08-29 03:33:06.150 ,7,0,0.,12.0,0.,12.0,0.,12.0,0.,12.0
1981-08-29 03:33:18.150 ,6,0,0.,12.0,0.,12.0,0.,12.0,0.,12.0
1981-08-29 03:33:30.150 ,6,0,0.,12.0,0.,12.0,0.,12.0,0.,12.0
1981-08-29 03:33:42.150 ,5,0,0.,12.0,0.,12.0,0.,12.0,0.,12.0
1981-08-29 03:33:54.150 ,5,0,0.,12.0,0.,12.0,0.,12.0,0.,12.0
1981-08-29 03:34:06.150 ,4,0,0.,12.0,0.,12.0,0.,12.0,0.,12.0
1981-08-29 03:34:18.150 ,4,0,0.,12.0,0.,12.0,0.,12.0,0.,12.0
1981-08-29 03:34:30.150 ,3,0,0.,12.0,0.,12.0,0.,12.0,0.,12.0
1981-08-29 03:34:42.150 ,3,0,0.,12.0,0.,12.0,0.,12.0,0.,12.0
1981-08-29 03:34:54.150 ,2,0,0.,12.0,0.,12.0,0.,12.0,0.,12.0
1981-08-29 03:35:06.150 ,2,0,0.,12.0,0.,12.0,0.,12.0,0.,12.0
1981-08-29 03:35:18.150 ,1,0,0.,12.0,0.,12.0,0.,12.0,0.,12.0
1981-08-29 03:35:30.150 ,1,0,0.,12.0,0.,12.0,0.,12.0,0.,12.0
1981-08-29 03:35:42.150 ,0,0,0.,12.0,0.,12.0,0.,12.0,0.,12.0
1981-08-29 03:35:54.150 ,0,0,0.,12.0,0.,12.0,0.,12.0,0.,12.0
1981-08-29 03:36:06.150 ,0,0,0.,12.0,0.,12.0,0.,12.0,0.,12.0
1981-08-29 03:36:18.150 ,0,0,0.,12.0,0.,12.0,0.,12.0,0.,12.0
1981-08-29 03:36:30.150 ,1,0,0.,12.0,0.,12.0,0.,12.0,0.,12.0
1981-08-29 03:36:42.150 ,1,0,0.,12.0,0.,12.0,0.,12.0,0.,12.0
1981-08-29 03:36:54.150 ,2,0,0.,12.0,0.,12.0,0.,12.0,0.,12.0
1981-08-29 03:37:06.150 ,2,0,0.,12.0,0.,12.0,0.,12.0,0.,12.0
1981-08-29 03:37:18.150 ,3,0,0.,12.0,0.,12.0,0.,12.0,0.,12.0
1981-08-29 03:37:30.150 ,3,0,0.,12.0,0.,12.0,0.,12.0,0.,12.0
1981-08-29 03:37:42.150 ,4,0,0.,12.0,0.,12.0,0.,12.0,0.,12.0
1981-08-29 03:37:54.150 ,4,0,0.,12.0,0.,12.0,0.,12.0,0.,12.0
1981-08-29 03:38:06.150 ,5,0,0.,12.0,0.,12.0,0.,12.0,0.,12.0
1981-08-29 03:38:18.150 ,5,0,0.,12.0,0.,12.0,0.,12.0,0.,12.0
1981-08-29 03:38:30.150 ,6,0,0.,12.0,0.,12.0,0.,12.0,0.,12.0
1981-08-29 03:38:42.150 ,6,0,0.,12.0,0.,12.0,0.,12.0,0.,12.0
1981-08-29 03:38:54.150 ,7,0,0.,12.0,0.,12.0,0.,12.0,0.,12.0
1981-08-29 03:39:06.150 ,7,0,0.,12.0,0.,12.0,0.,12.0,0.,12.0
1981-08-29 03:39:18.150 ,7,0,0.,12.0,0.,12.0,0.,12.0,0.,12.0
1981-08-29 03:39:30.150 ,7,0,0.,12.0,0.,12.0,0.,12.0,0.,12.0
1981-08-29 03:39:42.150 ,7,0,0.,12.0,0.,12.0,0.,12.0,0.,12.0
1981-08-29 03:39:54.150 ,7,0,0.,12.0,0.,12.0,0.,12.0,0.,12.0
1981-08-29 03:40:06.150 ,6,0,0.,12.0,0.,12.0,0.,12.0,0.,12.0
1981-08-29 03:40:18.150 ,6,0,0.,12.0,0.,12.0,0.,12.0,0.,12.0
1981-08-29 03:40:30.150 ,6,0,0.,12.0,0.,12.0,0.,12.0,0.,12.0
1981-08-29 03:40:42.150 ,6,0,0.,12.0,0.,12.0,0.,12.0,0.,12.0
1981-08-29 03:40:54.150 ,5,0,0.,12.0,0.,12.0,0.,12.0,0.,12.0
1981-08-29 03:41:06.150 ,5,0,0.,12.0,0.,12.0,0.,12.0,0.,12.0
1981-08-29 03:41:18.150 ,5,0,0.,12.0,0.,12.0,0.,12.0,0.,12.0
1981-08-29 03:41:30.150 ,5,0,0.,12.0,0.,12.0,0.,12.0,0.,12.0
1981-08-29 03:41:42.150 ,4,0,0.,12.0,0.,12.0,0.,12.0,0.,12.0
1981-08-29 03:41:54.150 ,4,0,0.,12.0,0.,12.0,0.,12.0,0.,12.0
1981-08-29 03:42:06.150 ,4,0,0.,12.0,0.,12.0,0.,12.0,0.,12.0
1981-08-29 03:42:18.150 ,4,0,0.,12.0,0.,12.0,0.,12.0,0.,12.0
1981-08-29 03:42:30.150 ,3,0,0.,12.0,0.,12.0,0.,12.0,0.,12.0
1981-08-29 03:42:42.150 ,3,0,0.,12.0,0.,12.0,0.,12.0,0.,12.0
1981-08-29 03:42:54.150 ,3,0,0.,12.0,0.,12.0,0.,12.0,0.,12.0
1981-08-29 03:43:06.150 ,3,0,0.,12.0,0.,12.0,0.,12.0,0.,12.0
1981-08-29 03:43:18.150 ,2,0,0.,12.0,0.,12.0,0.,12.0,0.,12.0
1981-08-29 03:43:30.150 ,2,0,0.,12.0,0.,12.0,0.,12.0,0.,12.0
1981-08-29 03:43:42.150 ,2,0,0.,12.0,0.,12.0,0.,12.0,0.,12.0
1981-08-29 03:43:54.150 ,2,0,0.,12.0,0.,12.0,0.,12.0,0.,12.0
1981-08-29 03:44:06.150 ,1,0,0.,12.0,0.,12.0,0.,12.0,0.,12.0
1981-08-29 03:44:18.150 ,1,0,0.,12.0,0.,12.0,0.,12.0,0.,12.0
1981-08-29 03:44:30.150 ,1,0,0.,12.0,0.,12.0,0.,12.0,0.,12.0
1981-08-29 03:44:42.150 ,1,0,0.,12.0,0.,12.0,0.,12.0,0.,12.0
1981-08-29 03:44:54.150 ,0,0,0.,12.0,0.,12.0,0.,12.0,0.,12.0
1981-08-29 03:45:06.150 ,0,0,0.,12.0,0.,12.0,0.,12.0,0.,12.0
1981-08-29 03:45:18.150 ,0,0,0.,12.0,0.,12.0,0.,12.0,0.,12.0
1981-08-29 03:45:30.150 ,0,0,0.,12.0,0.,12.0,0.,12.0,0.,12.0
1981-08-29 03:45:42.150 ,0,0,0.,12.0,0.,12.0,0.,12.0,0.,12.0
1981-08-29 03:45:54.150 ,0,0,0.,12.0,0.,12.0,0.,12.0,0.,12.0
1981-08-29 03:46:06.150 ,0,0,0.,12.0,0.,12.0,0.,12.0,0.,12.0
1981-08-29 03:46:18.150 ,0,0,0.,12.0,0.,12.0,0.,12.0,0.,12.0
1981-08-29 03:46:30.150 ,1,0,0.,12.0,0.,12.0,0.,12.0,0.,12.0
1981-08-29 03:46:42.150 ,1,0,0.,12.0,0.,12.0,0.,12.0,0.,12.0
1981-08-29 03:46:54.150 ,1,0,0.,12.0,0.,12.0,0.,12.0,0.,12.0
1981-08-29 03:47:06.150 ,1,0,0.,12.0,0.,12.0,0.,12.0,0.,12.0
1981-08-29 03:47:18.150 ,2,0,0.,12.0,0.,12.0,0.,12.0,0.,12.0
1981-08-29 03:47:30.150 ,2,0,0.,12.0,0.,12.0,0.,12.0,0.,12.0
1981-08-29 03:47:42.150 ,2,0,0.,12.0,0.,12.0,0.,12.0,0.,12.0
1981-08-29 03:47:54.150 ,2,0,0.,12.0,0.,12.0,0.,12.0,0.,12.0
1981-08-29 03:48:06.150 ,3,0,0.,12.0,0.,12.0,0.,12.0,0.,12.0
1981-08-29 03:48:18.150 ,3,0,0.,12.0,0.,12.0,0.,12.0,0.,12.0
1981-08-29 03:48:30.150 ,3,0,0.,12.0,0.,12.0,0.,12.0,0.,12.0
1981-08-29 03:48:42.150 ,3,0,0.,12.0,0.,12.0,0.,12.0,0.,12.0
1981-08-29 03:48:54.150 ,4,0,0.,12.0,0.,12.0,0.,12.0,0.,12.0
1981-08-29 03:49:06.150 ,4,0,0.,12.0,0.,12.0,0.,12.0,0.,12.0
1981-08-29 03:49:18.150 ,4,0,0.,12.0,0.,12.0,0.,12.0,0.,12.0
1981-08-29 03:49:30.150 ,4,0,0.,12.0,0.,12.0,0.,12.0,0.,12.0
1981-08-29 03:49:42.150 ,5,0,0.,12.0,0.,12.0,0.,12.0,0.,12.0
1981-08-29 03:49:54.150 ,5,0,0.,12.0,0.,12.0,0.,12.0,0.,12.0
1981-08-29 03:50:06.150 ,5,0,0.,12.0,0.,12.0,0.,12.0,0.,12.0
1981-08-29 03:50:18.150 ,5,0,0.,12.0,0.,12.0,0.,12.0,0.,12.0
1981-08-29 03:50:30.150 ,6,0,0.,12.0,0.,12.0,0.,12.0,0.,12.0
1981-08-29 03:50:42.150 ,6,0,0.,12.0,0.,12.0,0.,12.0,0.,12.0
1981-08-29 03:50:54.150 ,6,0,0.,12.0,0.,12.0,0.,12.0,0.,12.0
1981-08-29 03:51:06.150 ,6,0,0.,12.0,0.,12.0,0.,12.0,0.,12.0
1981-08-29 03:51:18.150 ,7,0,0.,12.0,0.,12.0,0.,12.0,0.,12.0
1981-08-29 03:51:30.150 ,7,0,0.,12.0,0.,12.0,0.,12.0,0.,12.0
1981-08-29 03:51:42.150 ,7,0,0.,12.0,0.,12.0,0.,12.0,0.,12.0
1981-08-29 03:51:54.150 ,7,0,0.,12.0,0.,12.0,0.,12.0,0.,12.0
1981-08-29 03:52:06.150 ,7,0,0.,12.0,0.,12.0,0.,12.0,0.,12.0
1981-08-29 03:52:18.150 ,7,0,0.,12.0,0.,12.0,0.,12.0,0.,12.0
1981-08-29 03:52:30.150 ,6,0,0.,12.0,0.,12.0,0.,12.0,0.,12.0
1981-08-29 03:52:42.150 ,6,0,0.,12.0,0.,12.0,0.,12.0,0.,12.0
1981-08-29 03:52:54.150 ,5,0,0.,12.0,0.,12.0,0.,12.0,0.,12.0
1981-08-29 03:53:06.150 ,5,0,0.,12.0,0.,12.0,0.,12.0,0.,12.0
1981-08-29 03:53:18.150 ,4,0,0.,12.0,0.,12.0,0.,12.0,0.,12.0
1981-08-29 03:53:30.150 ,4,0,0.,12.0,0.,12.0,0.,12.0,0.,12.0
1981-08-29 03:53:42.150 ,3,0,0.,12.0,0.,12.0,0.,12.0,0.,12.0
1981-08-29 03:53:54.150 ,3,0,0.,12.0,0.,12.0,0.,12.0,0.,12.0
1981-08-29 03:54:06.150 ,2,0,0.,12.0,0.,12.0,0.,12.0,0.,12.0
1981-08-29 03:54:18.150 ,2,0,0.,12.0,0.,12.0,0.,12.0,0.,12.0
1981-08-29 03:54:30.150 ,1,0,0.,12.0,0.,12.0,0.,12.0,0.,12.0
1981-08-29 03:54:42.150 ,1,0,0.,12.0,0.,12.0,0.,12.0,0.,12.0
1981-08-29 03:54:54.150 ,0,0,0.,12.0,0.,12.0,0.,12.0,0.,12.0
1981-08-29 03:55:06.150 ,0,0,0.,12.0,0.,12.0,0.,12.0,0.,12.0
1981-08-29 03:55:18.150 ,0,0,0.,12.0,0.,12.0,0.,12.0,0.,12.0
1981-08-29 03:55:30.150 ,0,0,0.,12.0,0.,12.0,0.,12.0,0.,12.0
1981-08-29 03:55:42.150 ,1,0,0.,12.0,0.,12.0,0.,12.0,0.,12.0
1981-08-29 03:55:54.150 ,1,0,0.,12.0,0.,12.0,0.,12.0,0.,12.0
1981-08-29 03:56:06.150 ,2,0,0.,12.0,0.,12.0,0.,12.0,0.,12.0
1981-08-29 03:56:18.150 ,2,0,0.,12.0,0.,12.0,0.,12.0,0.,12.0
1981-08-29 03:56:30.150 ,3,0,0.,12.0,0.,12.0,0.,12.0,0.,12.0
1981-08-29 03:56:42.150 ,3,0,0.,12.0,0.,12.0,0.,12.0,0.,12.0
1981-08-29 03:56:54.150 ,4,0,0.,12.0,0.,12.0,0.,12.0,0.,12.0
1981-08-29 03:57:06.150 ,4,0,0.,12.0,0.,12.0,0.,12.0,0.,12.0
1981-08-29 03:57:18.150 ,5,0,0.,12.0,0.,12.0,0.,12.0,0.,12.0
1981-08-29 03:57:30.150 ,5,0,0.,12.0,0.,12.0,0.,12.0,0.,12.0
1981-08-29 03:57:42.150 ,6,0,0.,12.0,0.,12.0,0.,12.0,0.,12.0
1981-08-29 03:57:54.150 ,6,0,0.,12.0,0.,12.0,0.,12.0,0.,12.0
1981-08-29 03:58:06.150 ,7,0,0.,12.0,0.,12.0,0.,12.0,0.,12.0
1981-08-29 03:58:18.150 ,7,0,0.,12.0,0.,12.0,0.,12.0,0.,12.0
1981-08-29 03:58:30.150 ,7,0,0.,12.0,0.,12.0,0.,12.0,0.,12.0
1981-08-29 03:58:42.150 ,7,0,0.,12.0,0.,12.0,0.,12.0,0.,12.0
1981-08-29 03:58:54.150 ,7,0,0.,12.0,0.,12.0,0.,12.0,0.,12.0
1981-08-29 03:59:06.150 ,7,0,0.,12.0,0.,12.0,0.,12.0,0.,12.0
1981-08-29 03:59:18.150 ,6,0,0.,12.0,0.,12.0,0.,12.0,0.,12.0
1981-08-29 03:59:30.150 ,6,0,0.,12.0,0.,12.0,0.,12.0,0.,12.0
1981-08-29 03:59:42.150 ,6,0,0.,12.0,0.,12.0,0.,12.0,0.,12.0
1981-08-29 03:59:54.150 ,6,0,0.,12.0,0.,12.0,0.,12.0,0.,12.0
1981-08-29 04:00:06.150 ,5,0,0.,12.0,0.,12.0,0.,12.0,0.,12.0
1981-08-29 04:00:18.150 ,5,0,0.,12.0,0.,12.0,0.,12.0,0.,12.0
1981-08-29 04:00:30.150 ,5,0,0.,12.0,0.,12.0,0.,12.0,0.,12.0
1981-08-29 04:00:42.150 ,5,0,0.,12.0,0.,12.0,0.,12.0,0.,12.0
1981-08-29 04:00:54.150 ,4,0,0.,12.0,0.,12.0,0.,12.0,0.,12.0
1981-08-29 04:01:06.150 ,4,0,0.,12.0,0.,12.0,0.,12.0,0.,12.0
1981-08-29 04:01:18.150 ,4,0,0.,12.0,0.,12.0,0.,12.0,0.,12.0
1981-08-29 04:01:30.150 ,4,0,0.,12.0,0.,12.0,0.,12.0,0.,12.0
1981-08-29 04:01:42.150 ,3,0,0.,12.0,0.,12.0,0.,12.0,0.,12.0
1981-08-29 04:01:54.150 ,3,0,0.,12.0,0.,12.0,0.,12.0,0.,12.0
1981-08-29 04:02:06.150 ,3,0,0.,12.0,0.,12.0,0.,12.0,0.,12.0
1981-08-29 04:02:18.150 ,3,0,0.,12.0,0.,12.0,0.,12.0,0.,12.0
1981-08-29 04:02:30.150 ,2,0,0.,12.0,0.,12.0,0.,12.0,0.,12.0
1981-08-29 04:02:42.150 ,2,0,0.,12.0,0.,12.0,0.,12.0,0.,12.0
1981-08-29 04:02:54.150 ,2,0,0.,12.0,0.,12.0,0.,12.0,0.,12.0
1981-08-29 04:03:06.150 ,2,0,0.,12.0,0.,12.0,0.,12.0,0.,12.0
1981-08-29 04:03:18.150 ,1,0,0.,12.0,0.,12.0,0.,12.0,0.,12.0
1981-08-29 04:03:30.150 ,1,0,0.,12.0,0.,12.0,0.,12.0,0.,12.0
1981-08-29 04:03:42.150 ,1,0,0.,12.0,0.,12.0,0.,12.0,0.,12.0
1981-08-29 04:03:54.150 ,1,0,0.,12.0,0.,12.0,0.,12.0,0.,12.0
1981-08-29 04:04:06.150 ,0,0,0.,12.0,0.,12.0,0.,12.0,0.,12.0
1981-08-29 04:04:18.150 ,0,0,0.,12.0,0.,12.0,0.,12.0,0.,12.0
1981-08-29 04:04:30.150 ,0,0,0.,12.0,0.,12.0,0.,12.0,0.,12.0
1981-08-29 04:04:42.150 ,0,0,0.,12.0,0.,12.0,0.,12.0,0.,12.0
1981-08-29 04:05:07.950 ,0,0,,0,,0,,0,,0
1981-08-29 04:05:19.950 ,0,0,0.,12.0,0.,12.0,0.,12.0,0.,12.0
1981-08-29 04:05:18.150 ,0,0,0.,12.0,0.,12.0,0.,12.0,0.,12.0
1981-08-29 04:05:30.150 ,0,0,0.,12.0,0.,12.0,0.,12.0,0.,12.0
1981-08-29 04:05:42.150 ,1,0,0.,12.0,0.,12.0,0.,12.0,0.,12.0
1981-08-29 04:05:54.150 ,1,0,0.,12.0,0.,12.0,0.,12.0,0.,12.0
1981-08-29 04:06:06.150 ,1,0,0.,12.0,0.,12.0,0.,12.0,0.,12.0
1981-08-29 04:06:18.150 ,1,0,0.,12.0,0.,12.0,0.,12.0,0.,12.0
1981-08-29 04:06:30.150 ,2,0,0.,12.0,0.,12.0,0.,12.0,0.,12.0
1981-08-29 04:06:42.150 ,2,0,0.,12.0,0.,12.0,0.,12.0,0.,12.0
1981-08-29 04:06:54.150 ,2,0,0.,12.0,0.,12.0,0.,12.0,0.,12.0
1981-08-29 04:07:06.150 ,2,0,0.,12.0,0.,12.0,0.,12.0,0.,12.0
1981-08-29 04:07:18.150 ,3,0,0.,12.0,0.,12.0,0.,12.0,0.,12.0
1981-08-29 04:07:30.150 ,3,0,0.,12.0,0.,12.0,0.,12.0,0.,12.0
1981-08-29 04:07:42.150 ,3,0,0.,12.0,0.,12.0,0.,12.0,0.,12.0
1981-08-29 04:07:54.150 ,3,0,0.,12.0,0.,12.0,0.,12.0,0.,12.0
1981-08-29 04:08:06.150 ,4,0,0.,12.0,0.,12.0,0.,12.0,0.,12.0
1981-08-29 04:08:18.150 ,4,0,0.,12.0,0.,12.0,0.,12.0,0.,12.0
1981-08-29 04:08:30.150 ,4,0,0.,12.0,0.,12.0,0.,12.0,0.,12.0
1981-08-29 04:08:42.150 ,4,0,0.,12.0,0.,12.0,0.,12.0,0.,12.0
1981-08-29 04:08:54.150 ,5,0,0.,12.0,0.,12.0,0.,12.0,0.,12.0
1981-08-29 04:09:06.150 ,5,0,0.,12.0,0.,12.0,0.,12.0,0.,12.0
1981-08-29 04:09:18.150 ,5,0,0.,12.0,0.,12.0,0.,12.0,0.,12.0
1981-08-29 04:09:30.150 ,5,0,0.,12.0,0.,12.0,0.,12.0,0.,12.0
1981-08-29 04:09:42.150 ,6,0,0.,12.0,0.,12.0,0.,12.0,0.,12.0
1981-08-29 04:09:54.150 ,6,0,0.,12.0,0.,12.0,0.,12.0,0.,12.0
1981-08-29 04:10:06.150 ,6,0,0.,12.0,0.,12.0,0.,12.0,0.,12.0
1981-08-29 04:10:18.150 ,6,0,0.,12.0,0.,12.0,0.,12.0,0.,12.0
1981-08-29 04:10:30.150 ,7,0,0.,12.0,0.,12.0,0.,12.0,0.,12.0
1981-08-29 04:10:42.150 ,7,0,0.,12.0,0.,12.0,0.,12.0,0.,12.0
1981-08-29 04:10:54.150 ,7,0,0.,12.0,0.,12.0,0.,12.0,0.,12.0
1981-08-29 04:11:06.150 ,7,0,0.,12.0,0.,12.0,0.,12.0,0.,12.0
1981-08-29 04:11:18.150 ,7,0,0.,12.0,0.,12.0,0.,12.0,0.,12.0
1981-08-29 04:11:30.150 ,7,0,0.,12.0,0.,12.0,0.,12.0,0.,12.0
1981-08-29 04:11:42.150 ,6,0,0.,12.0,0.,12.0,0.,12.0,0.,12.0
1981-08-29 04:11:54.150 ,6,0,0.,12.0,0.,12.0,0.,12.0,0.,12.0
1981-08-29 04:12:06.150 ,5,0,0.,12.0,0.,12.0,0.,12.0,0.,12.0
1981-08-29 04:12:18.150 ,5,0,0.,12.0,0.,12.0,0.,12.0,0.,12.0
1981-08-29 04:12:30.150 ,4,0,0.,12.0,0.,12.0,0.,12.0,0.,12.0
1981-08-29 04:12:42.150 ,4,0,0.,12.0,0.,12.0,0.,12.0,0.,12.0
1981-08-29 04:12:54.150 ,3,0,0.,12.0,0.,12.0,0.,12.0,0.,12.0
1981-08-29 04:13:06.150 ,3,0,0.,12.0,0.,12.0,0.,12.0,0.,12.0
1981-08-29 04:13:18.150 ,2,0,0.,12.0,0.,12.0,0.,12.0,0.,12.0
1981-08-29 04:13:30.150 ,2,0,0.,12.0,0.,12.0,0.,12.0,0.,12.0
1981-08-29 04:13:42.150 ,1,0,0.,12.0,0.,12.0,0.,12.0,0.,12.0
1981-08-29 04:13:54.150 ,1,0,0.,12.0,0.,12.0,0.,12.0,0.,12.0
1981-08-29 04:14:06.150 ,0,0,0.,12.0,0.,12.0,0.,12.0,0.,12.0
1981-08-29 04:14:18.150 ,0,0,0.,12.0,0.,12.0,0.,12.0,0.,12.0
1981-08-29 04:14:30.150 ,0,0,0.,12.0,0.,12.0,0.,12.0,0.,12.0
1981-08-29 04:14:42.150 ,0,0,0.,12.0,0.,12.0,0.,12.0,0.,12.0
1981-08-29 04:14:54.150 ,1,0,0.,12.0,0.,12.0,0.,12.0,0.,12.0
1981-08-29 04:15:06.150 ,1,0,0.,12.0,0.,12.0,0.,12.0,0.,12.0
1981-08-29 04:15:18.150 ,2,0,0.,12.0,0.,12.0,0.,12.0,0.,12.0
1981-08-29 04:15:30.150 ,2,0,0.,12.0,0.,12.0,0.,12.0,0.,12.0
1981-08-29 04:15:42.150 ,3,0,0.,12.0,0.,12.0,0.,12.0,0.,12.0
1981-08-29 04:15:54.150 ,3,0,0.,12.0,0.,12.0,0.,12.0,0.,12.0
1981-08-29 04:16:06.150 ,4,0,0.,12.0,0.,12.0,0.,12.0,0.,12.0
1981-08-29 04:16:18.150 ,4,0,0.,12.0,0.,12.0,0.,12.0,0.,12.0
1981-08-29 04:16:30.150 ,5,0,0.,12.0,0.,12.0,0.,12.0,0.,12.0
1981-08-29 04:16:42.150 ,5,0,0.,12.0,0.,12.0,0.,12.0,0.,12.0
1981-08-29 04:16:54.150 ,6,0,0.,12.0,0.,12.0,0.,12.0,0.,12.0
1981-08-29 04:17:06.150 ,6,0,0.,12.0,0.,12.0,0.,12.0,0.,12.0
1981-08-29 04:17:18.150 ,7,0,0.,12.0,0.,12.0,0.,12.0,0.,12.0
1981-08-29 04:17:30.150 ,7,0,0.,12.0,0.,12.0,0.,12.0,0.,12.0